{"data":{"norad_id":58519,"intl_designator":"2023-191M","name":"STARLINK-31010","alt_names":[],"object_type":"PAYLOAD","status":"ACTIVE","operator":null,"country":"US","launch_date":"2023-12-07","launch_site_code":"AFETR","launch_vehicle":null,"mission":null,"orbit_class":"UNKNOWN","rcs_meters":null,"size_class":null,"mass_kg":null,"dimensions":null,"purposes":["comms"],"wikipedia_slug":null,"has_3d_model":false,"image_url":null,"decayed_at":null,"tle_current":{"epoch":"2026-05-24T22:59:15.870048Z","epoch_age_seconds":89170,"freshness":"FRESH","line1":"1 58519U 23191M   26144.95782257 -.00000317  00000+0 -19882-5 0  9991","line2":"2 58519  43.0034  32.8187 0001240 250.1967 109.8751 15.27576444137131","mean_motion":15.27576444,"eccentricity":0.000124,"inclination_deg":43.0034,"raan_deg":32.8187,"arg_perigee_deg":250.1967,"mean_anomaly_deg":109.8751,"bstar":-1.9882e-6,"rev_number":13713,"period_min":94.266968154426,"perigee_km":482.20895560732,"apogee_km":483.91053239983,"semimajor_km":6861.1967440036,"source":"CELESTRAK","updated_at":"2026-05-25T13:38:18.657511Z"}}}